TimePST,TemperatureF,Dew PointF,Humidity,Sea Level PressureIn,VisibilityMPH,Wind Direction,Wind SpeedMPH,Gust SpeedMPH,PrecipitationIn,Events,Conditions,WindDirDegrees,DateUTC
12:43 AM,26.6,26.6,100,30.26,2.0,Calm,Calm,-,N/A,,Clear,0,2013-11-26 08:43:00
12:48 AM,26.6,26.6,100,30.26,2.5,South,1.2,-,N/A,,Clear,180,2013-11-26 08:48:00
12:53 AM,28.4,28.4,100,30.26,7.0,Calm,Calm,-,N/A,,Clear,0,2013-11-26 08:53:00
12:58 AM,28.0,27.9,99,30.28,6.0,South,1.2,-,N/A,,Clear,170,2013-11-26 08:58:00
1:13 AM,26.6,26.6,100,30.25,2.0,SE,1.2,-,N/A,,Clear,130,2013-11-26 09:13:00
1:18 AM,26.6,26.6,100,30.25,2.5,South,1.2,-,N/A,,Clear,180,2013-11-26 09:18:00
1:23 AM,28.4,28.4,100,30.25,3.0,South,2.3,-,N/A,,Clear,180,2013-11-26 09:23:00
1:58 AM,26.2,26.1,99,30.27,10.0,Calm,Calm,-,N/A,,Clear,0,2013-11-26 09:58:00
2:58 AM,27.7,27.3,99,30.27,10.0,South,2.3,-,N/A,,Clear,190,2013-11-26 10:58:00
3:53 AM,26.6,26.6,100,30.23,1.8,Calm,Calm,-,N/A,,Clear,0,2013-11-26 11:53:00
3:58 AM,26.2,25.9,99,30.25,1.8,Calm,Calm,-,N/A,,Clear,0,2013-11-26 11:58:00
4:03 AM,26.6,26.6,100,30.23,3.0,SSW,1.2,-,N/A,,Clear,210,2013-11-26 12:03:00
4:08 AM,26.6,26.6,100,30.23,7.0,SSW,2.3,-,N/A,,Clear,200,2013-11-26 12:08:00
4:11 AM,26.6,26.6,100,30.23,10.0,SSW,2.3,-,N/A,,Partly Cloudy,200,2013-11-26 12:11:00
4:21 AM,26.6,24.8,93,30.23,10.0,South,2.3,-,N/A,,Mostly Cloudy,190,2013-11-26 12:21:00
4:51 AM,28.4,28.4,100,30.23,10.0,Calm,Calm,-,N/A,,Scattered Clouds,0,2013-11-26 12:51:00
4:58 AM,27.5,27.1,99,30.25,10.0,Calm,Calm,-,N/A,,Partly Cloudy,0,2013-11-26 12:58:00
5:58 AM,25.5,25.3,99,30.25,10.0,Calm,Calm,-,N/A,,Clear,0,2013-11-26 13:58:00
6:17 AM,26.6,26.6,100,30.23,10.0,West,1.2,-,N/A,,Partly Cloudy,270,2013-11-26 14:17:00
6:27 AM,26.6,26.6,100,30.23,5.0,WSW,1.2,-,N/A,,Mostly Cloudy,240,2013-11-26 14:27:00
6:32 AM,26.6,24.8,93,30.23,1.8,South,1.2,-,N/A,,Mostly Cloudy,190,2013-11-26 14:32:00
6:37 AM,24.8,24.8,100,30.22,1.5,South,2.3,-,N/A,,Scattered Clouds,170,2013-11-26 14:37:00
6:42 AM,24.8,24.8,100,30.22,1.8,SE,1.2,-,N/A,,Scattered Clouds,130,2013-11-26 14:42:00
6:47 AM,24.8,24.8,100,30.22,3.0,Calm,Calm,-,N/A,,Scattered Clouds,0,2013-11-26 14:47:00
6:58 AM,25.5,25.3,99,30.25,7.0,SSE,1.2,-,N/A,,Partly Cloudy,150,2013-11-26 14:58:00
7:58 AM,28.0,27.9,99,30.25,10.0,WSW,3.5,-,N/A,,Clear,240,2013-11-26 15:58:00
8:58 AM,29.1,28.9,99,30.25,10.0,South,1.2,-,N/A,,Clear,190,2013-11-26 16:58:00
9:58 AM,33.3,32.9,99,30.25,10.0,West,4.6,-,N/A,,Clear,270,2013-11-26 17:58:00
10:58 AM,39.2,38.8,99,30.22,10.0,WSW,2.3,-,N/A,,Partly Cloudy,240,2013-11-26 18:58:00
11:58 AM,44.2,37.0,76,30.20,10.0,WNW,2.3,-,N/A,,Clear,300,2013-11-26 19:58:00
12:58 PM,48.4,35.6,61,30.18,10.0,West,2.3,-,N/A,,Clear,280,2013-11-26 20:58:00
1:58 PM,50.5,36.0,57,30.16,10.0,NW,2.3,-,N/A,,Clear,320,2013-11-26 21:58:00
3:22 PM,50.0,35.6,58,30.16,10.0,NW,2.3,-,N/A,,Mostly Cloudy,320,2013-11-26 23:22:00
3:58 PM,47.8,37.8,68,30.16,10.0,SW,3.5,-,N/A,,Overcast,230,2013-11-26 23:58:00
4:58 PM,46.9,39.0,74,30.16,10.0,Calm,Calm,-,N/A,,Overcast,0,2013-11-27 00:58:00
5:02 PM,46.4,39.2,76,30.14,10.0,SW,2.3,-,N/A,Rain,Light Rain,230,2013-11-27 01:02:00
5:12 PM,46.4,41.0,81,30.14,10.0,SSW,2.3,-,N/A,,Overcast,200,2013-11-27 01:12:00
5:58 PM,44.8,42.1,90,30.16,10.0,Calm,Calm,-,0.00,,Overcast,0,2013-11-27 01:58:00
6:58 PM,45.0,41.2,87,30.16,10.0,ENE,1.2,-,N/A,,Overcast,70,2013-11-27 02:58:00
7:58 PM,45.3,40.5,83,30.15,10.0,ENE,4.6,-,N/A,,Overcast,70,2013-11-27 03:58:00
8:58 PM,44.8,41.4,88,30.14,10.0,ENE,4.6,-,N/A,,Overcast,60,2013-11-27 04:58:00
9:04 PM,44.6,41.0,87,30.12,10.0,Variable,3.5,-,N/A,Rain,Light Rain,0,2013-11-27 05:04:00
9:18 PM,44.6,41.0,87,30.12,10.0,West,2.3,-,N/A,,Overcast,280,2013-11-27 05:18:00
9:58 PM,44.1,42.3,93,30.14,10.0,Calm,Calm,-,0.00,,Overcast,0,2013-11-27 05:58:00
10:58 PM,43.0,42.8,99,30.13,10.0,WNW,2.3,-,N/A,,Overcast,290,2013-11-27 06:58:00
11:58 PM,41.7,41.5,99,30.12,10.0,Calm,Calm,-,N/A,,Overcast,0,2013-11-27 07:58:00